User: anonymous   Login
Location: Avenches
(46.8809°N, 7.0410°E)
Time: 13:52:27
(UTC+00:00)
Language:

Cosmos 2058 Rocket - Orbit

View from above orbital plane
View from above orbital plane
View from above satellite
View from above satellite

Ground track
Ground track

The orbit data is extracted from the following two-line orbital elements,

1 20466U 90010B   20191.83440935 +.00000051 +00000-0 +35764-5 0  9993
2 20466 082.5026 045.8324 0018975 263.6392 096.2661 14.81387604622046
Epoch (UTC): 09 July 2020 20:01:32
Eccentricity: 0.0018975
inclination: 82.5026°
perigee height: 611 km
apogee height: 638 km
right ascension of ascending node: 45.8324°
argument of perigee: 263.6392°
revolutions per day: 14.81387604
mean anomaly at epoch: 96.2661°
orbit number at epoch: 62204

The dashed part of the orbit path shows where the satellite is in the earth's shadow,  

DLR